Погода в Мадмасе

Россия / Республика Коми     62°01′40″N   49°19′09″E
темп.,
°C
ветер,
м/с
пор.,
м/с
влажн.,
%
обл.,
%
осадки,
мм/ч
давл.,
гПа
погр.,
м
16 июня, ср
ср1600:00+16ю3106296 0.0 1007226
03:00+17ююз310727 0.0 1007341
06:00+20юз37652 0.0 1006497
09:00+24юз584022 0.0 10052500
12:00+21сз7747100 0.0 10051112
15:00+13зюз1293100 2.6 1007131
18:00+15з387873 1.0 1006276
21:00+11зсз388010 1.4 1008149
17 июня, чт
чт1700:00+8зсз26865 0.0 1011120
03:00+7ссз228496 0.0 101229
06:00+12сз12575 0.0 1013443
09:00+16зюз344693 0.0 10131714
12:00+9ссз41094100 4.5 1015560
15:00+13сз587631 5.4 10161313
18:00+12ссз367095 0.6 1018865
21:00+10сз387779 0.8 1020427
18 июня, пт
пт1800:00+6зсз28932 0.0 1022167
03:00+6з23895 0.0 102460
06:00+12зюз245985 0.0 1024373
09:00+17зюз463693 0.0 10221695
12:00+17зюз3840100 0.0 10211517
15:00+15зюз2852100 0.0 1019349
18:00+15ю2757100 0.0 1018198
21:00+18зюз31057100 0.0 1016379
19 июня, сб
сб1900:00+15юз31273100 0.0 1016303
03:00+14зюз31181100 0.0 1015258
06:00+18зюз31068100 0.0 1014370
09:00+22зюз5848100 0.0 10131024
12:00+27з6113545 0.0 10112021
15:00+26зсз51247100 0.0 10112035
18:00+19зсз4119590 6.1 1013656
21:00+18зсз3109311 6.6 1014597
20 июня, вс
вс2000:00+15зсз3995100 0.0 1016295
03:00+14сз269321 0.0 1018213
06:00+15ссв23675 0.0 1020491
09:00+20с224334 0.0 1020976
12:00+21св234489 0.0 1019831
15:00+26зсз144191 0.0 10171337
18:00+26ююв2450100 0.0 10141035
21:00+21ююв277399 0.0 1014149